• Em Portugal
  • Lista de países
  • Para 7 dias
  • Temperatura da água
  • Mapas de satélite
  • Mapa do tempo
  • Widgets de tempo
  • user-avatar
    Iniciar Sessão

    Previsão horária em Benguela

    Hoje, 23 Maio, Quarta-feira

    Tempo Temperatura Precipitação Vento Pressão Humidade
    00:00 +29°C° 0 mm 2 m/s 760 mmHg 62%
    01:00 +29°C° 0 mm 2 m/s 760 mmHg 59%
    02:00 +29°C° 0 mm 2 m/s 760 mmHg 58%
    03:00 +29°C° 0 mm 2 m/s 760 mmHg 56%
    04:00 +29°C° 0 mm 2 m/s 759 mmHg 55%
    05:00 +29°C° 0 mm 2 m/s 760 mmHg 54%
    06:00 +28°C° 0 mm 2 m/s 760 mmHg 54%
    07:00 +28°C° 0 mm 2 m/s 760 mmHg 53%
    08:00 +30°C° 0 mm 2 m/s 760 mmHg 45%
    09:00 +34°C° 0 mm 2 m/s 760 mmHg 38%
    10:00 +37°C° 0 mm 3 m/s 760 mmHg 30%
    11:00 +37°C° 0 mm 3 m/s 759 mmHg 29%
    12:00 +38°C° 0 mm 3 m/s 759 mmHg 28%
    13:00 +40°C° 0 mm 4 m/s 758 mmHg 28%
    14:00 +38°C° 0 mm 4 m/s 758 mmHg 34%
    15:00 +37°C° 0 mm 4 m/s 758 mmHg 39%
    16:00 +36°C° 0 mm 3 m/s 758 mmHg 45%
    17:00 +33°C° 0 mm 3 m/s 758 mmHg 54%
    18:00 +30°C° 0 mm 2 m/s 758 mmHg 63%
    19:00 +28°C° 0 mm 1 m/s 759 mmHg 72%
    20:00 +28°C° 0 mm 1 m/s 759 mmHg 73%
    21:00 +27°C° 0 mm 1 m/s 760 mmHg 74%
    22:00 +27°C° 0 mm 1 m/s 760 mmHg 75%
    23:00 +27°C° 0 mm 1 m/s 760 mmHg 74%

    Amanhã, 24 Maio, Quinta-feira

    Tempo Temperatura Precipitação Vento Pressão Humidade
    00:00 +26°C° 0 mm 1 m/s 760 mmHg 72%
    01:00 +26°C° 0 mm 1 m/s 760 mmHg 70%
    02:00 +26°C° 0 mm 2 m/s 760 mmHg 67%
    03:00 +26°C° 0 mm 2 m/s 760 mmHg 63%
    04:00 +25°C° 0 mm 2 m/s 760 mmHg 59%
    05:00 +25°C° 0 mm 2 m/s 760 mmHg 57%
    06:00 +25°C° 0 mm 2 m/s 760 mmHg 55%
    07:00 +25°C° 0 mm 2 m/s 760 mmHg 52%
    08:00 +28°C° 0 mm 2 m/s 760 mmHg 45%
    09:00 +32°C° 0 mm 2 m/s 760 mmHg 37%
    10:00 +36°C° 0 mm 2 m/s 760 mmHg 30%
    11:00 +37°C° 0 mm 3 m/s 760 mmHg 28%
    12:00 +38°C° 0 mm 3 m/s 759 mmHg 27%
    13:00 +40°C° 0 mm 4 m/s 758 mmHg 26%
    14:00 +38°C° 0 mm 4 m/s 758 mmHg 30%
    15:00 +37°C° 0 mm 3 m/s 757 mmHg 34%
    16:00 +36°C° 0 mm 3 m/s 757 mmHg 39%
    17:00 +33°C° 0 mm 3 m/s 757 mmHg 45%
    18:00 +30°C° 0 mm 2 m/s 757 mmHg 51%
    19:00 +28°C° 0 mm 2 m/s 758 mmHg 57%
    20:00 +28°C° 0 mm 2 m/s 758 mmHg 57%
    21:00 +27°C° 0 mm 2 m/s 759 mmHg 58%
    22:00 +27°C° 0 mm 1 m/s 760 mmHg 58%
    23:00 +27°C° 0 mm 2 m/s 760 mmHg 58%

    Depois de amanhã, 25 Maio, Sexta-feira

    Tempo Temperatura Precipitação Vento Pressão Humidade
    00:00 +26°C° 0 mm 2 m/s 759 mmHg 58%
    01:00 +26°C° 0 mm 2 m/s 759 mmHg 57%
    02:00 +26°C° 0 mm 2 m/s 759 mmHg 56%
    03:00 +25°C° 0 mm 2 m/s 758 mmHg 54%
    04:00 +25°C° 0 mm 2 m/s 758 mmHg 52%
    05:00 +25°C° 0 mm 2 m/s 758 mmHg 53%
    06:00 +25°C° 0 mm 2 m/s 758 mmHg 53%
    07:00 +25°C° 0 mm 2 m/s 759 mmHg 53%
    08:00 +28°C° 0 mm 2 m/s 759 mmHg 47%
    09:00 +32°C° 0 mm 2 m/s 759 mmHg 40%
    10:00 +36°C° 0 mm 2 m/s 759 mmHg 33%
    11:00 +37°C° 0 mm 2 m/s 758 mmHg 30%
    12:00 +38°C° 0 mm 3 m/s 757 mmHg 28%
    13:00 +40°C° 0 mm 4 m/s 757 mmHg 25%
    14:00 +38°C° 0 mm 4 m/s 756 mmHg 29%
    15:00 +37°C° 0 mm 4 m/s 756 mmHg 33%
    16:00 +36°C° 0 mm 4 m/s 755 mmHg 36%
    17:00 +34°C° 0 mm 3 m/s 756 mmHg 43%
    18:00 +30°C° 0 mm 2 m/s 757 mmHg 49%
    19:00 +28°C° 0 mm 2 m/s 757 mmHg 55%
    20:00 +27°C° 0 mm 1 m/s 758 mmHg 57%
    21:00 +27°C° 0 mm 1 m/s 758 mmHg 60%
    22:00 +26°C° 0 mm 1 m/s 759 mmHg 62%
    23:00 +26°C° 0 mm 1 m/s 759 mmHg 62%

    26 Maio, Sábado

    Tempo Temperatura Precipitação Vento Pressão Humidade
    00:00 +26°C° 0 mm 1 m/s 759 mmHg 62%
    01:00 +25°C° 0 mm 1 m/s 758 mmHg 63%
    02:00 +25°C° 0 mm 1 m/s 758 mmHg 61%
    03:00 +25°C° 0 mm 1 m/s 758 mmHg 60%
    04:00 +25°C° 0 mm 1 m/s 758 mmHg 59%
    05:00 +25°C° 0 mm 1 m/s 758 mmHg 58%
    06:00 +25°C° 0 mm 1 m/s 759 mmHg 57%
    07:00 +25°C° 0 mm 1 m/s 759 mmHg 56%
    08:00 +28°C° 0 mm 2 m/s 759 mmHg 49%
    09:00 +31°C° 0 mm 2 m/s 759 mmHg 41%
    10:00 +36°C° 0 mm 2 m/s 759 mmHg 33%
    11:00 +36°C° 0 mm 3 m/s 759 mmHg 33%
    12:00 +37°C° 0 mm 3 m/s 758 mmHg 32%
    13:00 +38°C° 0 mm 4 m/s 757 mmHg 32%
    14:00 +37°C° 0 mm 4 m/s 757 mmHg 35%
    15:00 +36°C° 0 mm 3 m/s 756 mmHg 39%
    16:00 +36°C° 0 mm 3 m/s 756 mmHg 43%
    17:00 +33°C° 0 mm 3 m/s 757 mmHg 51%
    18:00 +30°C° 0 mm 2 m/s 757 mmHg 58%
    19:00 +28°C° 0 mm 2 m/s 758 mmHg 66%
    20:00 +28°C° 0 mm 1 m/s 758 mmHg 67%
    21:00 +27°C° 0 mm 1 m/s 759 mmHg 67%
    22:00 +27°C° 0 mm 1 m/s 759 mmHg 68%
    23:00 +27°C° 0 mm 1 m/s 759 mmHg 67%

    27 Maio, Domingo

    Tempo Temperatura Precipitação Vento Pressão Humidade
    00:00 +27°C° 0 mm 2 m/s 759 mmHg 66%
    01:00 +27°C° 0 mm 2 m/s 759 mmHg 65%
    02:00 +26°C° 0 mm 1 m/s 759 mmHg 64%
    03:00 +26°C° 0 mm 1 m/s 759 mmHg 63%
    04:00 +26°C° 0 mm 1 m/s 758 mmHg 62%
    05:00 +26°C° 0 mm 1 m/s 759 mmHg 60%
    06:00 +26°C° 0 mm 1 m/s 759 mmHg 59%
    07:00 +26°C° 0 mm 1 m/s 760 mmHg 57%
    08:00 +29°C° 0 mm 1 m/s 760 mmHg 49%
    09:00 +31°C° 0 mm 2 m/s 760 mmHg 42%
    10:00 +35°C° 0 mm 2 m/s 760 mmHg 34%
    11:00 +36°C° 0 mm 2 m/s 759 mmHg 34%
    12:00 +37°C° 0 mm 3 m/s 759 mmHg 34%
    13:00 +38°C° 0 mm 4 m/s 758 mmHg 33%
    14:00 +37°C° 0 mm 4 m/s 758 mmHg 38%
    15:00 +36°C° 0 mm 4 m/s 757 mmHg 42%
    16:00 +35°C° 0 mm 4 m/s 757 mmHg 46%
    17:00 +33°C° 0 mm 3 m/s 758 mmHg 55%
    18:00 +30°C° 0 mm 2 m/s 759 mmHg 63%
    19:00 +28°C° 0 mm 2 m/s 759 mmHg 72%
    20:00 +27°C° 0 mm 1 m/s 760 mmHg 73%
    21:00 +27°C° 0 mm 1 m/s 760 mmHg 74%
    22:00 +27°C° 0 mm 1 m/s 761 mmHg 76%
    23:00 +27°C° 0 mm 2 m/s 760 mmHg 74%

    28 Maio, Segunda-feira

    Tempo Temperatura Precipitação Vento Pressão Humidade
    00:00 +27°C° 0 mm 2 m/s 760 mmHg 73%
    01:00 +27°C° 0 mm 2 m/s 760 mmHg 72%
    02:00 +27°C° 0 mm 2 m/s 760 mmHg 68%
    03:00 +27°C° 0 mm 2 m/s 760 mmHg 65%
    04:00 +27°C° 0 mm 2 m/s 760 mmHg 62%
    05:00 +27°C° 0 mm 2 m/s 760 mmHg 60%
    06:00 +27°C° 0 mm 2 m/s 761 mmHg 58%
    07:00 +27°C° 0 mm 1 m/s 761 mmHg 57%
    08:00 +30°C° 0 mm 2 m/s 761 mmHg 49%
    09:00 +34°C° 0 mm 2 m/s 761 mmHg 41%
    10:00 +36°C° 0 mm 2 m/s 761 mmHg 33%
    11:00 +37°C° 0 mm 3 m/s 760 mmHg 32%
    12:00 +38°C° 0 mm 3 m/s 759 mmHg 32%
    13:00 +40°C° 0 mm 4 m/s 759 mmHg 31%
    14:00 +38°C° 0 mm 4 m/s 758 mmHg 35%
    15:00 +36°C° 0 mm 4 m/s 758 mmHg 39%
    16:00 +35°C° 0 mm 4 m/s 758 mmHg 43%
    17:00 +33°C° 0 mm 3 m/s 758 mmHg 51%
    18:00 +30°C° 0 mm 3 m/s 759 mmHg 58%
    19:00 +28°C° 0 mm 2 m/s 760 mmHg 65%
    20:00 +28°C° 0 mm 2 m/s 760 mmHg 66%
    21:00 +27°C° 0 mm 2 m/s 760 mmHg 67%
    22:00 +27°C° 0 mm 2 m/s 761 mmHg 67%
    23:00 +27°C° 0 mm 2 m/s 760 mmHg 67%
    Mostrar mais